Location: St. Louis
(38.6270°N, 90.1994°W)
Time: 05:59:20
(UTC-06:00)

Vanguard 2 Rocket - Pass Details

Date: 29 November 2021
Orbit: 554 x 3325 km, 32.9° (Epoch: 21 January)

Event Time Altitude Azimuth Distance (km) Brightness Sun altitude
Rises 18:28:08 0° 229° (SW) 3,490 10.9 -20.6°
Reaches altitude 10° 18:30:21 10° 222° (SW) 2,788 10.1 -21.1°
Maximum altitude 18:36:48 43° 152° (SSE) 1,924 8.3 -22.3°
Enters shadow 18:41:03 30° 107° (ESE) 2,748 8.8 -23.1°
